Location: Fort Worth, Tx
(32.7431°N, 97.3695°W)
Time: 11:37:08
(UTC-04:00)

Courier 1B - Pass Details

Date: 26 February 2024
Orbit: 962 x 1208 km, 28.3° (Epoch: 24 April)

Event Time Altitude Azimuth Distance (km) Brightness Sun altitude
Exits shadow 07:22:35 - 251° (WSW) 2,973 9.5 -8.9°
Reaches altitude 10° 07:23:33 10° 244° (WSW) 2,768 9.4 -8.7°
Maximum altitude 07:27:33 17° 207° (SSW) 2,365 9.3 -7.9°
Drops below altitude 10° 07:31:39 10° 171° (S) 2,862 10.2 -7.0°
Sets 07:35:35 0° 151° (SSE) 3,869 11.2 -6.2°
